Home > Weather > Swindon > Past weeks

Flag for United Kingdom Past Weather in Swindon, England, United Kingdom — Yesterday and Last 2 Weeks

Now
50 °F

Passing clouds.


Feels Like: 46 °F
Forecast: 40 / 56 °F
Wind: 10 mph from East

Location: Brize Norton

Current Time: May 24, 2016 at 10:41:06 PM

Latest Report: May 24, 2016 at 9:50 PM


Visibility: N/A

Pressure: 30.12 "Hg

Humidity: 76%

Dew Point: 43 °F

Location of SwindonLocation

Past Weather in Swindon — Graph

°F

Swindon Temperature Yesterday

Maximum temperature yesterday: 63 °F (at 1:50 PM)
Minimum temperature yesterday: 45 °F (at 4:50 AM)
Average temperature yesterday: 55 °F

High & Low Weather Summary for the Past Weeks

 TemperatureHumidityPressure
High72 °F (May 12, 3:50 PM)100% (May 10, 5:50 AM)30.21 "Hg (May 10, 5:50 AM)
Low39 °F (May 15, 2:50 AM)39% (May 15, 2:50 PM)29.56 "Hg (May 18, 12:50 PM)
Average55 °F76%29.88 "Hg
* Reported May 9 8:50 PM — May 24 8:50 PM, Swindon, Weather by CustomWeather, © 2016

Note: Actual official high and low records may vary slightly from our data, if they occured in-between our weather recording intervals... More about our weather records

Advertising

Swindon Weather History for the Previous 24 Hours

Scroll right to see more
 ConditionsComfort  
Time TempWeatherWind HumidityBarometerVisibility
8:50 PM
Tue, May 24
54 °FPassing clouds.14 mph63%30.09 "HgN/A
7:50 PM55 °FPassing clouds.16 mph59%30.12 "HgN/A
6:50 PM59 °FPassing clouds.17 mph51%30.12 "HgN/A
5:50 PM59 °FPassing clouds.13 mph51%30.12 "HgN/A
4:50 PM61 °FPassing clouds.14 mph48%30.12 "HgN/A
3:50 PM61 °FPartly sunny.15 mph48%30.12 "HgN/A
2:50 PM61 °FPartly sunny.16 mph48%30.15 "HgN/A
1:50 PM61 °FPassing clouds.15 mph42%30.15 "HgN/A
12:50 PM59 °FPassing clouds.14 mph45%30.15 "HgN/A
11:50 AM59 °FPassing clouds.15 mph45%30.18 "HgN/A
10:50 AM57 °FPassing clouds.10 mph51%30.18 "HgN/A
9:50 AM55 °FPassing clouds.5 mph59%30.18 "HgN/A
8:50 AM52 °FPassing clouds.5 mph72%30.21 "HgN/A
7:50 AM48 °FHaze.8 mph87%30.21 "Hg4 mi
6:50 AM46 °FScattered clouds.8 mph93%30.21 "Hg3 mi
5:50 AM45 °FHaze.6 mph93%30.21 "Hg3 mi
4:50 AM45 °FHaze.5 mph93%30.18 "Hg4 mi
3:50 AM46 °FClear.7 mph87%30.18 "Hg10 mi
2:50 AM46 °FClear.3 mph93%30.18 "Hg10 mi
1:50 AM48 °FClear.6 mph94%30.18 "Hg10 mi
12:50 AM48 °FClear.5 mph87%30.18 "Hg10 mi
11:50 PM
Mon, May 23
50 °FClear.5 mph82%30.18 "Hg10 mi
10:50 PM50 °FClear.6 mph82%30.18 "Hg10 mi
Weather by CustomWeather, © 2016

See weather overviewHow to use our weather pages